Weather History for Asheboro, NC

Change the Weather History Date:

Saturday, April 19, 2014

  Actual Average Record
Temperature  
Mean Temperature 50 °F -  
Max Temperature 56 °F 73 °F 91 °F (1941)
Min Temperature 45 °F 48 °F 28 °F (1983)
Degree Days  
Heating Degree Days 14    
Moisture  
Dew Point 46 °F    
Average Humidity 84    
Maximum Humidity 100    
Minimum Humidity 55    
Precipitation  
Precipitation 0.34 in - - ()
Sea Level Pressure  
Sea Level Pressure 30.19 in    
Wind  
Wind Speed 7 mph (NNE)    
Max Wind Speed 13 mph    
Max Gust Speed 22 mph    
Visibility 10 miles    
Events Rain    
Averages and records for this station are not official NWS values.
T = Trace of Precipitation, MM = Missing Value Source: NWS Daily Summary

Daily Weather History Graph

Daily Weather History Graph

Search for Another Location

Airport:

Trip Planner

Search our weather history database for the weather conditions in past years. The results will help you decide how hot, cold, wet, or windy it might be!

Date:

Astronomy

Apr. 19, 2014 Rise Set
Actual Time 6:41 AM EDT 7:56 PM EDT
Civil Twilight 6:15 AM EDT 8:22 PM EDT
Nautical Twilight 5:43 AM EDT 8:54 PM EDT
Astronomical Twilight 5:10 AM EDT 9:27 PM EDT
Moon No Moon Rise 10:03 AM EDT (4/19)
Length of Visible Light 14h 07m
Length of Day
13h 14m
Waning Gibbous, 79% of the Moon is Illuminated
Apr 19
Waning Gibbous
Apr 22
Last Quarter
Apr 29
New
May 6
First Quarter
May 14
Full

Hourly Weather History & Observations

Time (EDT) Temp. Windchill Dew Point Humidity Pressure Visibility Wind Dir Wind Speed Gust Speed Precip Events Conditions
12:15 AM 47.7 °F - 47.7 °F 100% 30.22 in 10.0 mi NNE 5.8 mph - 0.01 in Rain Light Rain
12:35 AM 47.5 °F - 47.5 °F 100% 30.22 in 10.0 mi NNE 4.6 mph - 0.01 in Rain Light Rain
12:55 AM 47.3 °F - 47.3 °F 100% 30.21 in 7.0 mi NNE 6.9 mph - 0.03 in Rain Rain
1:15 AM 47.3 °F - 47.3 °F 100% 30.21 in 7.0 mi NNE 5.8 mph - 0.01 in Rain Rain
1:35 AM 47.3 °F - 47.3 °F 100% 30.22 in 7.0 mi NE 3.5 mph - 0.02 in Rain Light Rain
1:55 AM 47.3 °F - 47.3 °F 100% 30.19 in 10.0 mi NNE 5.8 mph - 0.03 in Rain Light Rain
2:15 AM 46.9 °F - 46.9 °F 100% 30.18 in 10.0 mi North 8.1 mph - 0.01 in Rain Light Rain
2:35 AM 46.8 °F - 46.8 °F 100% 30.18 in 10.0 mi NNE 6.9 mph - 0.02 in Rain Rain
2:55 AM 46.8 °F - 46.8 °F 100% 30.19 in 7.0 mi Calm Calm - 0.04 in Rain Rain
3:15 AM 46.8 °F - 46.8 °F 100% 30.19 in 7.0 mi NNE 5.8 mph - 0.02 in Rain Rain
3:35 AM 46.6 °F - 46.6 °F 100% 30.17 in 7.0 mi NNE 6.9 mph - 0.05 in Rain Rain
3:55 AM 46.6 °F - 46.6 °F 100% 30.17 in 7.0 mi NNE 6.9 mph - 0.08 in Rain Rain
4:15 AM 46.8 °F - 46.8 °F 100% 30.17 in 10.0 mi NNE 5.8 mph - 0.02 in Rain Rain
4:35 AM 46.6 °F - 46.6 °F 100% 30.17 in 10.0 mi NNE 5.8 mph - 0.04 in Rain Rain
4:55 AM 46.6 °F - 46.6 °F 100% 30.16 in 10.0 mi North 9.2 mph - 0.05 in Rain Light Rain
5:15 AM 46.0 °F 42.5 °F 46.0 °F 100% 30.16 in 10.0 mi NNE 6.9 mph - 0.01 in Rain Light Rain
5:35 AM 45.9 °F 42.9 °F 45.9 °F 100% 30.15 in 10.0 mi NNE 5.8 mph - 0.03 in Rain Rain
5:55 AM 45.7 °F 42.0 °F 45.7 °F 100% 30.16 in 7.0 mi NNE 6.9 mph - 0.06 in Rain Rain
6:15 AM 45.5 °F 40.8 °F 45.5 °F 100% 30.15 in 10.0 mi North 9.2 mph - 0.02 in Rain Rain
6:35 AM 45.5 °F 41.3 °F 45.5 °F 100% 30.15 in 10.0 mi NNE 8.1 mph - 0.03 in Rain Light Rain
6:55 AM 45.5 °F 40.3 °F 45.5 °F 100% 30.15 in 10.0 mi NNE 10.4 mph - 0.04 in Rain Light Rain
7:15 AM 45.5 °F 40.8 °F 45.5 °F 100% 30.16 in 10.0 mi NNE 9.2 mph - N/A   Light Drizzle
7:35 AM 45.5 °F 41.3 °F 45.5 °F 100% 30.16 in 10.0 mi NNE 8.1 mph - N/A Rain Light Rain
7:55 AM 45.5 °F 42.5 °F 45.5 °F 100% 30.17 in 10.0 mi NNE 5.8 mph 16.1 mph N/A Rain Light Rain
8:15 AM 45.5 °F 40.8 °F 45.5 °F 100% 30.17 in 10.0 mi NNE 9.2 mph - N/A Rain Light Rain
8:35 AM 45.5 °F 39.9 °F 45.5 °F 100% 30.15 in 10.0 mi NNE 11.5 mph 18.4 mph N/A   Light Drizzle
8:55 AM 45.5 °F 40.3 °F 45.5 °F 100% 30.16 in 10.0 mi NNE 10.4 mph - N/A   Mostly Cloudy
9:15 AM 46.0 °F 41.9 °F 46.0 °F 100% 30.16 in 10.0 mi NNE 8.1 mph - N/A   Overcast
9:35 AM 46.6 °F - 46.6 °F 100% 30.17 in 10.0 mi NNE 6.9 mph - N/A   Overcast
9:55 AM 47.3 °F - 47.3 °F 100% 30.17 in 10.0 mi North 10.4 mph 17.3 mph N/A   Light Drizzle
10:15 AM 47.8 °F - 47.8 °F 100% 30.18 in 10.0 mi NNE 4.6 mph - N/A Rain Light Rain
10:35 AM 48.2 °F - 46.0 °F 92% 30.19 in 10.0 mi NNE 6.9 mph - N/A   Overcast
10:55 AM 48.4 °F - 45.7 °F 90% 30.19 in 10.0 mi NNE 5.8 mph - N/A   Overcast
11:15 AM 49.1 °F - 45.9 °F 89% 30.19 in 10.0 mi NNE 5.8 mph - N/A   Light Drizzle
11:35 AM 50.0 °F - 46.2 °F 87% 30.19 in 10.0 mi North 9.2 mph - N/A Rain Light Rain
11:55 AM 50.2 °F - 46.0 °F 86% 30.19 in 10.0 mi North 10.4 mph - N/A   Mostly Cloudy
12:15 PM 50.9 °F - 46.4 °F 85% 30.20 in 10.0 mi NNE 9.2 mph - N/A   Light Drizzle
12:35 PM 50.9 °F - 46.2 °F 84% 30.21 in 10.0 mi NE 6.9 mph - N/A Rain Light Rain
1:15 PM 51.4 °F - 46.9 °F 85% 30.19 in 10.0 mi NNE 8.1 mph - 0.01 in Rain Light Rain
1:35 PM 52.0 °F - 46.6 °F 82% 30.18 in 10.0 mi NE 8.1 mph - 0.01 in Rain Light Rain
1:55 PM 53.4 °F - 46.6 °F 78% 30.18 in 10.0 mi NNE 6.9 mph 19.6 mph 0.01 in   Mostly Cloudy
2:15 PM 54.1 °F - 46.6 °F 76% 30.18 in 10.0 mi NNE 10.4 mph 16.1 mph N/A   Overcast
2:35 PM 54.7 °F - 46.4 °F 74% 30.17 in 10.0 mi NNE 10.4 mph 16.1 mph N/A   Overcast
2:55 PM 55.6 °F - 46.8 °F 72% 30.18 in 10.0 mi NNE 10.4 mph 18.4 mph N/A   Overcast
3:15 PM 54.5 °F - 46.9 °F 76% 30.18 in 10.0 mi NNE 8.1 mph 21.9 mph N/A   Light Drizzle
3:35 PM 53.8 °F - 49.1 °F 84% 30.18 in 7.0 mi North 12.7 mph - N/A   Light Drizzle
3:55 PM 53.4 °F - 48.4 °F 83% 30.18 in 10.0 mi NNE 10.4 mph - N/A   Overcast
4:15 PM 53.6 °F - 46.4 °F 77% 30.18 in 10.0 mi NNE 8.1 mph 17.3 mph N/A   Overcast
4:35 PM 54.5 °F - 45.7 °F 72% 30.18 in 10.0 mi NNE 11.5 mph 19.6 mph N/A   Overcast
4:55 PM 54.7 °F - 45.5 °F 71% 30.18 in 10.0 mi NNE 9.2 mph - N/A   Overcast
5:15 PM 54.3 °F - 43.3 °F 66% 30.19 in 7.0 mi NNE 10.4 mph 19.6 mph N/A   Light Drizzle
5:35 PM 54.7 °F - 42.4 °F 63% 30.19 in 10.0 mi NE 6.9 mph - N/A   Overcast
5:55 PM 55.6 °F - 42.1 °F 60% 30.19 in 10.0 mi NNE 5.8 mph - N/A   Overcast
6:15 PM 56.5 °F - 41.9 °F 58% 30.18 in 10.0 mi NNE 6.9 mph - N/A   Mostly Cloudy
6:35 PM 56.8 °F - 41.9 °F 57% 30.19 in 10.0 mi NNE 8.1 mph - N/A   Mostly Cloudy
6:55 PM 56.8 °F - 41.0 °F 55% 30.18 in 10.0 mi NE 8.1 mph - N/A   Overcast
7:15 PM 56.7 °F - 41.4 °F 57% 30.19 in 10.0 mi NNE 5.8 mph - N/A   Mostly Cloudy
7:35 PM 56.5 °F - 41.7 °F 58% 30.20 in 10.0 mi NNE 3.5 mph - N/A   Overcast
7:55 PM 56.3 °F - 43.2 °F 61% 30.21 in 10.0 mi NNE 3.5 mph - N/A Rain Light Rain
8:15 PM 54.7 °F - 45.9 °F 72% 30.22 in 10.0 mi Calm Calm - N/A Rain Light Rain
8:35 PM 55.4 °F - 44.8 °F 67% 30.22 in 10.0 mi Calm Calm - N/A Rain Light Rain
8:55 PM 55.0 °F - 45.1 °F 69% 30.23 in 10.0 mi NNE 4.6 mph - N/A Rain Light Rain
9:15 PM 55.4 °F - 44.6 °F 67% 30.24 in 10.0 mi NNE 3.5 mph - N/A Rain Light Rain
9:30 PM 55.4 °F - 44.4 °F 67% 30.24 in 10.0 mi North 9.2 mph - N/A Rain Light Rain
9:55 PM 54.9 °F - 44.2 °F 67% 30.24 in 10.0 mi NNE 6.9 mph - N/A Rain Light Rain
10:15 PM 54.9 °F - 43.9 °F 66% 30.24 in 10.0 mi NNE 5.8 mph - N/A   Light Drizzle
10:35 PM 54.5 °F - 44.4 °F 69% 30.25 in 10.0 mi North 5.8 mph - N/A   Light Drizzle
10:55 PM 53.8 °F - 45.0 °F 72% 30.25 in 10.0 mi North 4.6 mph - N/A Rain Light Rain
11:15 PM 54.0 °F - 44.2 °F 70% 30.25 in 10.0 mi NNE 5.8 mph - N/A   Overcast
11:35 PM 54.3 °F - 43.7 °F 67% 30.25 in 10.0 mi NNE 5.8 mph - N/A   Mostly Cloudy
11:55 PM 54.3 °F - 43.0 °F 66% 30.25 in 10.0 mi NNE 9.2 mph - N/A   Mostly Cloudy